| time (UTC) | temp C | wind direction | speed KPH | gust KPH | rain 1hr cm | rain 24hr cm | rain mn cm | humidity % | barometer mb |
| 20260505123817 | 20 | 179 | 1.6 | 3.2 | 0.00 | 0.00 | 0.00 | 44 | 757.5 |
| 20260505122817 | 19 | 179 | 1.6 | 6.4 | 0.00 | 0.00 | 0.00 | 45 | 757.5 |
| 20260505121817 | 18 | 41 | 1.6 | 3.2 | 0.00 | 0.00 | 0.00 | 46 | 757.5 |
| 20260505120148 | 17 | 41 | 1.6 | 4.8 | 0.00 | 0.00 | 0.00 | 50 | 757.5 |
| 20260505115148 | 16 | 0 | 0.0 | 4.8 | 0.00 | 0.00 | 0.00 | 52 | 757.5 |
| 20260505114149 | 15 | 0 | 0.0 | 3.2 | 0.00 | 0.00 | 0.00 | 55 | 757.5 |
| 20260505112525 | 14 | 56 | 1.6 | 6.4 | 0.00 | 0.00 | 0.00 | 58 | 757.5 |
| 20260505111525 | 13 | 0 | 0.0 | 0.0 | 0.00 | 0.00 | 0.00 | 59 | 757.5 |
| 20260505110525 | 13 | 0 | 0.0 | 0.0 | 0.00 | 0.00 | 0.00 | 60 | 757.5 |
| 20260505101234 | 13 | 0 | 0.0 | 3.2 | 0.00 | 0.00 | 0.00 | 60 | 757.5 |
| 20260505100233 | 13 | 0 | 0.0 | 0.0 | 0.00 | 0.00 | 0.00 | 59 | 757.5 |
| 20260505095233 | 13 | 0 | 0.0 | 3.2 | 0.00 | 0.00 | 0.00 | 58 | 757.5 |
| 20260505093608 | 13 | 0 | 0.0 | 3.2 | 0.00 | 0.00 | 0.00 | 58 | 757.5 |
| 20260505092609 | 13 | 39 | 1.6 | 3.2 | 0.00 | 0.00 | 0.00 | 58 | 757.5 |
| 20260505091609 | 13 | 0 | 0.0 | 3.2 | 0.00 | 0.00 | 0.00 | 57 | 757.5 |
| 20260505085955 | 14 | 0 | 0.0 | 0.0 | 0.00 | 0.00 | 0.00 | 55 | 757.5 |
| 20260505084955 | 15 | 0 | 0.0 | 0.0 | 0.00 | 0.00 | 0.00 | 54 | 757.5 |
| 20260505083956 | 15 | 0 | 0.0 | 0.0 | 0.00 | 0.00 | 0.00 | 54 | 757.5 |
| 20260505082408 | 15 | 0 | 0.0 | 0.0 | 0.00 | 0.00 | 0.00 | 53 | 757.5 |
| 20260505081408 | 15 | 0 | 0.0 | 0.0 | 0.00 | 0.00 | 0.00 | 52 | 757.5 |
| 20260505080409 | 16 | 0 | 0.0 | 0.0 | 0.00 | 0.00 | 0.00 | 52 | 757.5 |
| 20260505074752 | 16 | 0 | 0.0 | 0.0 | 0.00 | 0.00 | 0.00 | 51 | 757.5 |
| 20260505073752 | 16 | 0 | 0.0 | 0.0 | 0.00 | 0.00 | 0.00 | 51 | 757.5 |
| 20260505072751 | 16 | 0 | 0.0 | 0.0 | 0.00 | 0.00 | 0.00 | 50 | 757.5 |
| 20260505071139 | 16 | 0 | 0.0 | 1.6 | 0.00 | 0.00 | 0.00 | 50 | 757.5 |
| 20260505070139 | 16 | 160 | 1.6 | 3.2 | 0.00 | 0.00 | 0.00 | 49 | 757.5 |
| 20260505065139 | 16 | 50 | 1.6 | 6.4 | 0.00 | 0.00 | 0.00 | 49 | 757.5 |
| 20260505063536 | 16 | 0 | 0.0 | 0.0 | 0.00 | 0.00 | 0.00 | 48 | 757.5 |
| 20260505062536 | 16 | 3 | 1.6 | 4.8 | 0.00 | 0.00 | 0.00 | 48 | 757.5 |
| 20260505061536 | 16 | 213 | 3.2 | 4.8 | 0.00 | 0.00 | 0.00 | 47 | 757.5 |
| 20260505055931 | 16 | 224 | 3.2 | 8.0 | 0.00 | 0.00 | 0.00 | 46 | 757.5 |
| 20260505054931 | 16 | 212 | 4.8 | 11.3 | 0.00 | 0.00 | 0.00 | 46 | 757.5 |
| 20260505053931 | 16 | 216 | 4.8 | 9.7 | 0.00 | 0.00 | 0.00 | 45 | 757.5 |
| 20260505052326 | 17 | 206 | 4.8 | 9.7 | 0.00 | 0.00 | 0.00 | 44 | 757.5 |
| 20260505051327 | 17 | 218 | 4.8 | 9.7 | 0.00 | 0.00 | 0.00 | 44 | 757.5 |
| 20260505050326 | 17 | 210 | 6.4 | 9.7 | 0.00 | 0.00 | 0.00 | 43 | 757.5 |
| 20260505041141 | 17 | 216 | 4.8 | 8.0 | 0.00 | 0.00 | 0.00 | 39 | 757.5 |
| 20260505040141 | 17 | 207 | 4.8 | 8.0 | 0.00 | 0.00 | 0.00 | 39 | 757.5 |
| 20260505035140 | 17 | 190 | 3.2 | 8.0 | 0.00 | 0.00 | 0.00 | 39 | 757.5 |
| 20260505033546 | 17 | 206 | 3.2 | 6.4 | 0.00 | 0.00 | 0.00 | 38 | 757.5 |
| 20260505032546 | 17 | 204 | 3.2 | 4.8 | 0.00 | 0.00 | 0.00 | 38 | 757.5 |
| 20260505031546 | 17 | 204 | 3.2 | 4.8 | 0.00 | 0.00 | 0.00 | 38 | 757.5 |
| 20260505030001 | 17 | 204 | 3.2 | 6.4 | 0.00 | 0.00 | 0.00 | 37 | 757.5 |
| 20260505025001 | 17 | 208 | 3.2 | 6.4 | 0.00 | 0.00 | 0.00 | 37 | 757.5 |
| 20260505024000 | 17 | 211 | 3.2 | 4.8 | 0.00 | 0.00 | 0.00 | 36 | 757.5 |
| 20260505022416 | 17 | 211 | 3.2 | 4.8 | 0.00 | 0.00 | 0.00 | 36 | 757.5 |
| 20260505021416 | 17 | 199 | 3.2 | 6.4 | 0.00 | 0.00 | 0.00 | 36 | 757.5 |
| 20260505020415 | 17 | 206 | 3.2 | 6.4 | 0.00 | 0.00 | 0.00 | 36 | 757.5 |
| 20260505014827 | 17 | 210 | 3.2 | 6.4 | 0.00 | 0.00 | 0.00 | 36 | 757.5 |
| 20260505013827 | 18 | 210 | 3.2 | 4.8 | 0.00 | 0.00 | 0.00 | 35 | 757.5 |
| 20260505012826 | 18 | 214 | 1.6 | 4.8 | 0.00 | 0.00 | 0.00 | 35 | 757.5 |
| 20260505011258 | 18 | 214 | 1.6 | 4.8 | 0.00 | 0.00 | 0.00 | 35 | 757.5 |
| 20260505010258 | 18 | 214 | 1.6 | 4.8 | 0.00 | 0.00 | 0.00 | 34 | 757.5 |
| 20260505005258 | 18 | 214 | 3.2 | 4.8 | 0.00 | 0.00 | 0.00 | 34 | 757.5 |
| 20260505003719 | 18 | 214 | 1.6 | 4.8 | 0.00 | 0.00 | 0.00 | 33 | 757.5 |
| 20260505002719 | 19 | 213 | 1.6 | 4.8 | 0.00 | 0.00 | 0.00 | 32 | 757.5 |
| 20260505001719 | 19 | 214 | 1.6 | 4.8 | 0.00 | 0.00 | 0.00 | 31 | 757.5 |
| 20260505000142 | 20 | 207 | 3.2 | 4.8 | 0.00 | 0.00 | 0.00 | 31 | 757.5 |
| 20260504235142 | 20 | 205 | 3.2 | 6.4 | 0.00 | 0.00 | 0.00 | 30 | 757.5 |
| 20260504234142 | 20 | 216 | 4.8 | 9.7 | 0.00 | 0.00 | 0.00 | 29 | 757.5 |
| 20260504232625 | 20 | 202 | 3.2 | 8.0 | 0.00 | 0.00 | 0.00 | 29 | 757.5 |
| 20260504231626 | 21 | 219 | 3.2 | 6.4 | 0.00 | 0.00 | 0.00 | 28 | 757.5 |
| 20260504230625 | 21 | 216 | 4.8 | 11.3 | 0.00 | 0.00 | 0.00 | 27 | 757.5 |
| 20260504225020 | 21 | 205 | 3.2 | 11.3 | 0.00 | 0.00 | 0.00 | 27 | 757.5 |
| 20260504224020 | 21 | 193 | 3.2 | 6.4 | 0.00 | 0.00 | 0.00 | 27 | 757.5 |
| 20260504223021 | 21 | 208 | 4.8 | 6.4 | 0.00 | 0.00 | 0.00 | 27 | 757.5 |
| 20260504221435 | 22 | 207 | 1.6 | 4.8 | 0.00 | 0.00 | 0.00 | 28 | 757.5 |
| 20260504220436 | 22 | 202 | 4.8 | 9.7 | 0.00 | 0.00 | 0.00 | 28 | 757.5 |
| 20260504215436 | 22 | 214 | 3.2 | 8.0 | 0.00 | 0.00 | 0.00 | 26 | 757.5 |
| 20260504213844 | 22 | 210 | 3.2 | 11.3 | 0.00 | 0.00 | 0.00 | 27 | 757.5 |
| 20260504212845 | 22 | 199 | 3.2 | 8.0 | 0.00 | 0.00 | 0.00 | 28 | 757.5 |
| 20260504211845 | 22 | 207 | 3.2 | 8.0 | 0.00 | 0.00 | 0.00 | 28 | 757.5 |
| 20260504210243 | 22 | 223 | 4.8 | 8.0 | 0.00 | 0.00 | 0.00 | 26 | 757.5 |
| 20260504205243 | 23 | 221 | 4.8 | 9.7 | 0.00 | 0.00 | 0.00 | 25 | 757.5 |
| 20260504204244 | 23 | 208 | 4.8 | 11.3 | 0.00 | 0.00 | 0.00 | 25 | 757.5 |
| 20260504202643 | 23 | 205 | 1.6 | 8.0 | 0.00 | 0.00 | 0.00 | 26 | 757.5 |
| 20260504201642 | 22 | 207 | 1.6 | 9.7 | 0.00 | 0.00 | 0.00 | 24 | 757.5 |
| 20260504200642 | 22 | 211 | 4.8 | 9.7 | 0.00 | 0.00 | 0.00 | 25 | 757.5 |
| 20260504195030 | 22 | 230 | 6.4 | 11.3 | 0.00 | 0.00 | 0.00 | 24 | 757.5 |
| 20260504194030 | 22 | 198 | 3.2 | 9.7 | 0.00 | 0.00 | 0.00 | 26 | 757.5 |
| 20260504193030 | 22 | 221 | 9.7 | 17.7 | 0.00 | 0.00 | 0.00 | 23 | 757.5 |
| 20260504191411 | 22 | 231 | 6.4 | 14.5 | 0.00 | 0.00 | 0.00 | 23 | 757.5 |
| 20260504190411 | 22 | 248 | 1.6 | 12.9 | 0.00 | 0.00 | 0.00 | 23 | 757.5 |
| 20260504185411 | 22 | 211 | 4.8 | 9.7 | 0.00 | 0.00 | 0.00 | 24 | 757.5 |
| 20260504183744 | 22 | 207 | 3.2 | 8.0 | 0.00 | 0.00 | 0.00 | 23 | 757.5 |
| 20260504182744 | 22 | 232 | 6.4 | 11.3 | 0.00 | 0.00 | 0.00 | 24 | 757.5 |
| 20260504181744 | 22 | 222 | 4.8 | 16.1 | 0.00 | 0.00 | 0.00 | 23 | 757.5 |
| 20260504180113 | 22 | 202 | 4.8 | 11.3 | 0.00 | 0.00 | 0.00 | 25 | 757.5 |
| 20260504175114 | 22 | 219 | 3.2 | 9.7 | 0.00 | 0.00 | 0.00 | 24 | 757.5 |
| 20260504174113 | 21 | 210 | 4.8 | 8.0 | 0.00 | 0.00 | 0.00 | 26 | 757.5 |
| 20260504172458 | 21 | 217 | 6.4 | 11.3 | 0.00 | 0.00 | 0.00 | 25 | 757.5 |
| 20260504171458 | 21 | 220 | 4.8 | 11.3 | 0.00 | 0.00 | 0.00 | 25 | 757.5 |
| 20260504170458 | 21 | 192 | 4.8 | 8.0 | 0.00 | 0.00 | 0.00 | 25 | 757.5 |
| 20260504160145 | 20 | 222 | 6.4 | 9.7 | 0.00 | 0.00 | 0.00 | 27 | 757.5 |